Powrót do katalogu

IRIDIUM 33 DEB

AktywnyPO
NORAD 33887·DEBRIS·🇺🇸 United States

Wystrzelony Sep 14, 1997 z Baikonur Cosmodrome

Loading…

Następne Przeloty (najbliższe 24 godziny)

TLE

ŚwieżeSource: Space-Track

Epoka: Sep 14, 2026, 10:47 UTC

1 33887U 97051BG  26257.44971255  .00000285  00000-0  88709-4 0  9991
2 33887  86.2997 244.5499 0008273  66.7718  86.1945 14.37442384921256

Śledź IRIDIUM 33 DEB w czasie rzeczywistym z AllMySat

Download on the App Store